This demonstration page uses our WeatherBlox Daily Observations layout. Learn more.

Left ArrowRight Arrow

36.17497, -115.13722

Hourly Observations for October 7, 2021

Temp ( °F °C ) Dew Point ( °F °C ) Humidity (%) Winds ( mph kmh ) Pressure ( in mb ) Visibility ( mi km ) Precip ( " mm )
12:53 am 00:53 Clear 70 21.1 45 7.2 41 41 Calm 29.91 1013 10 16 0.00 0.00
1:53 am 01:53 Clear 69 20.6 45 7.2 42 42 NE 6 9 29.91 1013 10 16 0.00 0.00
2:53 am 02:53 Clear 67 19.4 45 7.2 45 45 Calm 29.91 1013 10 16 0.00 0.00
3:53 am 03:53 Clear 68 20 47 8.3 47 47 WNW 5 7 29.92 1013 10 16 0.00 0.00
4:53 am 04:53 Clear 67 19.4 48 8.9 51 51 WNW 6 9 29.92 1013 10 16 0.00 0.00
5:53 am 05:53 Clear 67 19.4 48 8.9 51 51 Calm 29.94 1014 10 16 0.00 0.00
6:53 am 06:53 Sunny 69 20.6 47 8.3 45 45 Calm 29.96 1015 10 16 0.00 0.00
7:53 am 07:53 Sunny 69 20.6 47 8.3 45 45 Calm 29.97 1015 10 16 0.00 0.00
8:53 am 08:53 Sunny 71 21.7 47 8.3 42 42 ESE 5 7 29.98 1015 10 16 0.00 0.00
9:53 am 09:53 Sunny 74 23.3 48 8.9 40 40 ESE 6 9 29.98 1015 10 16 0.00 0.00
10:53 am 10:53 Sunny 76 24.4 49 9.4 39 39 E 3 6 29.98 1015 10 16 0.00 0.00
11:53 am 11:53 Sunny 79 26.1 49 9.4 35 35 SE 5 7 29.97 1015 10 16 0.00 0.00
12:53 pm 12:53 Sunny 81 27.2 49 9.4 33 33 ESE 10 17 29.94 1014 10 16 0.00 0.00
1:53 pm 13:53 Sunny 81 27.2 48 8.9 32 32 SE 6 9 29.92 1013 10 16 0.00 0.00
2:53 pm 14:53 Sunny 83 28.3 49 9.4 31 31 ESE 12 19 29.91 1013 10 16 0.00 0.00
3:53 pm 15:53 Sunny 84 28.9 49 9.4 30 30 ESE 13 20 29.89 1012 10 16 0.00 0.00
4:53 pm 16:53 Sunny 83 28.3 50 10 32 32 SE 12 19 29.88 1012 10 16 0.00 0.00
5:53 pm 17:53 Sunny 83 28.3 49 9.4 31 31 SSE 7 11 29.88 1012 10 16 0.00 0.00
6:53 pm 18:53 Clear 81 27.2 47 8.3 30 30 S 9 15 29.88 1012 10 16 0.00 0.00
7:53 pm 19:53 Clear 79 26.1 52 11.1 39 39 ESE 12 19 29.89 1012 10 16 0.00 0.00
8:53 pm 20:53 Clear 79 26.1 47 8.3 32 32 SSE 9 15 29.90 1012 10 16 0.00 0.00
9:53 pm 21:53 Clear 77 25 48 8.9 36 36 E 6 9 29.88 1012 10 16 0.00 0.00
10:53 pm 22:53 Clear 76 24.4 51 10.6 42 42 VRB 6 9 29.89 1012 10 16 0.00 0.00
11:53 pm 23:53 Clear 76 24.4 50 10 40 40 ESE 5 7 29.87 1012 10 16 0.00 0.00

Powered by AerisWeather